TimeMDT,TemperatureF,Dew PointF,Humidity,Sea Level PressureIn,VisibilityMPH,Wind Direction,Wind SpeedMPH,Gust SpeedMPH,PrecipitationIn,Events,Conditions,WindDirDegrees,DateUTC
12:53 AM,28.9,16.0,58,30.13,10.0,Calm,Calm,-,N/A,,Mostly Cloudy,0,2012-10-27 06:53:00
1:53 AM,28.9,18.0,64,30.12,10.0,NNW,6.9,-,N/A,,Overcast,330,2012-10-27 07:53:00
2:53 AM,30.9,16.0,54,30.11,10.0,West,4.6,-,N/A,,Overcast,260,2012-10-27 08:53:00
3:53 AM,30.0,16.0,56,30.09,10.0,WNW,3.5,-,N/A,,Overcast,290,2012-10-27 09:53:00
4:53 AM,30.9,16.0,54,30.09,10.0,WSW,4.6,-,N/A,,Overcast,240,2012-10-27 10:53:00
5:53 AM,32.0,14.0,48,30.10,10.0,Calm,Calm,-,N/A,,Overcast,0,2012-10-27 11:53:00
6:53 AM,30.0,18.0,61,30.13,10.0,North,5.8,-,N/A,,Overcast,350,2012-10-27 12:53:00
7:53 AM,30.9,18.0,59,30.14,10.0,West,5.8,-,N/A,,Overcast,270,2012-10-27 13:53:00
9:53 AM,37.0,19.9,50,30.13,10.0,North,6.9,-,N/A,,Clear,350,2012-10-27 15:53:00
10:53 AM,37.9,17.1,43,30.12,10.0,North,5.8,-,N/A,,Mostly Cloudy,10,2012-10-27 16:53:00
11:53 AM,39.0,17.1,41,30.11,10.0,ESE,3.5,-,N/A,,Mostly Cloudy,110,2012-10-27 17:53:00
12:53 PM,39.9,17.1,40,30.08,10.0,South,9.2,-,N/A,,Overcast,170,2012-10-27 18:53:00
1:53 PM,42.1,18.0,38,30.05,10.0,SE,9.2,-,N/A,,Mostly Cloudy,130,2012-10-27 19:53:00
2:53 PM,42.1,21.0,43,30.04,10.0,South,6.9,-,N/A,,Overcast,170,2012-10-27 20:53:00
3:53 PM,42.1,18.0,38,30.06,10.0,Calm,Calm,-,N/A,,Mostly Cloudy,0,2012-10-27 21:53:00
4:53 PM,41.0,18.0,40,30.07,10.0,Calm,Calm,-,N/A,,Overcast,0,2012-10-27 22:53:00
5:53 PM,37.0,19.9,50,30.08,10.0,Calm,Calm,-,N/A,,Clear,0,2012-10-27 23:53:00
6:53 PM,32.0,21.9,66,30.12,10.0,WSW,6.9,-,N/A,,Clear,240,2012-10-28 00:53:00
7:53 PM,33.1,21.9,64,30.12,10.0,SW,6.9,-,N/A,,Overcast,230,2012-10-28 01:53:00
8:53 PM,35.1,19.9,54,30.11,10.0,SSW,5.8,-,N/A,,Clear,210,2012-10-28 02:53:00
10:53 PM,34.0,21.0,59,30.09,10.0,South,6.9,-,N/A,,Mostly Cloudy,170,2012-10-28 04:53:00
11:53 PM,33.1,19.9,59,30.07,10.0,South,9.2,-,N/A,,Clear,170,2012-10-28 05:53:00